Wind_Speed
37 38 39 40 41 41 42 42 42 43 43 43 44 44 45 45 46 46 48 49 50 51 52 52 53 54 54 55 56 57 57 58 58 57 57 57 57 57 57 57 57 57 58
38 39 40 41 41 42 42 43 44 44 45 45 46 47 47 48 48 49 50 51 52 52 53 54 54 55 56 57 58 58 59 60 61 59 58 59 59 59 59 59 59 60 60
38 38 39 40 41 42 43 44 44 45 46 47 48 49 49 49 50 51 51 52 53 54 55 56 57 58 58 59 60 61 62 62 62 61 60 60 60 61 61 60 60 60 60
38 39 39 40 41 42 43 44 45 46 47 48 49 50 50 51 52 52 53 54 54 55 56 57 58 59 60 61 62 62 62 62 62 62 61 61 61 61 61 61 60 60 60
38 39 40 41 42 42 44 45 46 47 48 49 50 50 51 52 52 53 54 55 56 57 58 59 60 61 61 62 62 62 62 62 62 61 61 61 61 61 61 60 60 59 58
39 40 41 42 43 44 45 46 47 48 48 49 50 51 51 52 53 54 55 56 57 58 59 60 61 61 62 62 62 62 62 62 62 62 61 60 60 59 59 59 58 57 56
40 42 42 44 44 45 46 47 47 48 49 49 50 50 51 52 53 55 57 58 59 60 61 61 61 61 62 61 61 61 61 62 62 61 60 59 58 58 58 58 57 56 54
42 43 43 45 46 46 47 48 48 49 49 50 50 51 52 53 55 57 58 59 60 61 62 62 62 61 61 61 61 61 61 60 60 60 59 58 57 57 57 56 55 54 52
43 44 45 46 47 48 48 49 49 50 51 51 52 53 54 55 57 58 59 60 61 62 62 62 62 62 62 62 62 61 60 59 58 58 57 57 56 56 55 55 54 53 51
45 46 46 47 48 49 49 50 51 52 52 53 53 54 55 56 57 59 60 61 62 62 62 62 62 62 62 62 61 60 59 58 58 57 56 56 55 55 54 53 52 51 49
47 47 48 49 49 50 50 51 52 53 53 54 54 55 56 58 59 59 61 61 62 62 62 61 61 61 61 60 59 58 58 57 57 56 55 54 53 52 52 51 50 49 48
48 48 49 49 50 50 51 52 53 54 54 55 56 57 57 59 59 60 61 61 62 62 61 60 60 59 58 57 56 56 56 55 55 54 53 52 51 50 49 48 47 47 46
48 48 49 50 50 51 52 52 53 55 56 57 57 58 58 59 59 60 60 60 60 60 59 59 58 56 55 54 53 53 53 53 52 51 50 49 48 47 45 44 44 44 43
48 49 49 50 51 51 52 53 54 55 57 58 58 59 59 59 59 59 59 58 58 57 57 56 54 52 52 51 51 51 51 51 50 49 48 46 44 43 42 42 42 41 40
48 49 50 50 51 52 53 54 55 56 57 58 58 59 59 58 58 58 57 56 56 55 54 52 51 50 50 49 49 49 49 49 48 46 44 43 42 41 40 40 39 38 37
48 49 50 51 51 52 53 53 53 54 55 56 56 57 57 57 56 55 54 54 53 52 51 49 49 48 48 48 47 47 46 46 44 43 41 40 39 38 37 36 35 34 33
49 50 51 51 51 52 52 52 52 52 52 53 54 54 55 54 53 52 51 50 49 49 48 48 47 47 47 46 45 44 42 41 40 39 38 37 35 34 33 32 31 30 30
49 50 50 51 51 51 51 51 51 51 51 51 51 52 51 51 50 50 48 47 46 46 46 45 45 44 43 42 41 39 38 37 36 34 33 32 31 30 30 29 29 28 28
49 49 49 49 49 49 50 50 50 51 51 50 50 49 49 48 48 47 45 44 43 43 42 42 42 41 40 38 36 36 35 33 32 31 29 29 28 28 27 26 26 26 25
48 48 48 48 48 48 49 49 49 50 50 49 48 47 46 46 44 43 42 42 41 41 41 40 39 38 36 34 34 33 32 30 29 28 27 26 26 25 25 24 24 24 24
47 47 47 47 47 48 48 48 48 48 47 46 46 45 44 43 41 41 40 40 40 40 39 37 35 34 33 32 31 29 28 27 26 25 24 24 24 24 23 23 22 22 22
46 46 46 46 47 47 47 47 47 46 46 45 43 42 41 41 40 40 39 39 38 37 36 34 33 31 30 29 28 26 25 24 24 23 22 22 22 22 21 21 20 20 21
44 45 46 47 47 47 46 46 45 45 44 43 42 40 39 39 39 38 37 36 35 34 33 32 31 29 28 27 25 24 23 23 22 21 21 21 20 20 19 19 19 19 20
44 45 46 46 47 46 45 45 45 44 42 41 40 39 38 38 37 36 35 34 33 32 31 30 29 27 26 25 24 23 22 22 21 20 20 19 19 18 18 18 18 18 19
44 45 45 45 45 45 44 44 43 41 40 40 39 38 37 37 35 34 33 32 31 30 29 28 27 25 24 23 22 21 21 20 19 18 18 17 17 16 16 16 17 17 18
43 44 44 45 44 43 43 41 40 39 38 37 37 36 36 35 34 33 31 30 29 28 27 26 25 23 22 21 20 20 19 18 17 16 15 15 14 14 15 15 16 16 16
Wind_Direction
273 274 275 276 277 278 278 278 278 279 279 281 282 283 284 284 283 283 284 285 285 286 287 287 288 289 289 290 290 290 291 291 291 291 290 290 289 289 289 289 289 289 288
275 276 276 277 277 277 278 278 278 280 280 281 282 284 285 285 284 284 285 286 286 287 287 288 288 289 290 290 291 290 290 290 290 290 290 289 289 289 289 289 289 289 288
277 277 278 278 278 278 279 279 279 280 281 282 283 284 285 284 285 285 285 286 287 287 288 288 289 289 290 290 291 291 290 290 290 290 289 288 288 289 289 289 289 289 288
278 278 279 280 280 279 280 280 281 282 282 283 283 284 284 285 286 286 286 287 287 288 289 290 290 290 290 291 291 291 290 290 289 289 289 289 289 289 289 289 289 289 289
279 280 280 281 281 281 281 281 282 282 283 284 284 284 286 286 286 286 287 288 289 290 290 291 291 291 291 292 291 291 290 290 289 289 289 289 289 289 289 289 289 290 289
280 281 281 282 282 283 283 283 284 284 285 285 286 286 287 287 287 288 288 289 290 291 291 291 291 291 292 292 291 291 290 290 289 289 289 289 289 288 289 289 289 289 288
281 281 282 282 283 284 284 284 284 285 286 287 288 288 288 288 288 289 290 291 291 291 292 292 291 292 292 291 291 290 290 290 290 289 289 288 288 288 288 289 289 289 288
282 282 283 284 284 285 285 285 286 286 287 288 288 289 289 289 290 290 291 292 292 292 292 292 292 292 292 291 291 291 291 290 290 289 289 288 288 288 288 289 288 288 287
283 283 284 285 285 285 285 286 286 287 287 288 289 289 290 291 291 292 292 292 293 293 293 293 292 292 292 291 291 291 290 290 289 289 288 288 288 288 288 288 288 288 287
284 284 285 285 286 286 286 286 287 287 288 289 290 291 291 291 292 292 293 293 293 293 293 293 292 292 292 292 291 290 290 289 288 288 287 287 287 287 286 286 286 286 286
284 285 285 286 286 286 287 287 288 288 289 289 290 291 292 292 293 293 293 294 294 294 294 293 293 292 292 291 290 290 289 289 288 287 287 286 286 285 285 285 285 285 285
285 285 286 286 286 287 287 288 288 289 289 289 290 291 292 293 293 293 294 294 295 295 295 294 293 293 292 291 290 290 289 289 289 288 288 287 286 285 284 284 283 283 283
286 287 287 287 287 288 288 289 290 290 290 290 291 292 292 293 294 294 294 295 295 295 295 295 294 293 292 291 291 290 290 290 290 289 288 287 286 285 284 283 282 281 281
287 288 288 288 289 289 290 290 291 291 291 292 293 294 294 295 294 294 294 295 295 295 295 295 294 294 293 292 291 290 290 290 290 290 288 287 285 284 283 282 281 281 280
288 289 290 290 290 291 291 292 292 292 293 294 295 295 296 296 296 295 295 295 295 296 295 295 294 294 293 293 292 291 291 291 290 289 287 286 285 284 283 281 281 280 278
289 290 291 291 291 292 292 293 293 294 295 295 296 296 297 297 297 297 296 296 296 297 296 296 296 295 295 294 292 291 291 290 289 288 287 285 284 284 283 281 281 279 277
291 291 291 292 292 293 293 294 294 295 296 296 297 297 298 298 298 297 297 296 297 297 297 297 297 297 296 295 294 293 292 291 289 288 286 285 284 283 282 281 279 278 277
291 292 292 292 293 293 293 294 295 296 297 297 298 298 298 298 298 298 297 297 297 298 298 298 298 298 297 296 295 293 293 292 292 290 287 285 284 283 282 280 279 278 276
291 292 293 293 293 294 295 296 297 298 299 299 299 298 298 299 299 298 298 298 298 299 299 300 300 299 298 296 295 295 294 293 292 290 287 285 284 283 282 280 279 278 276
292 293 293 294 295 295 296 297 298 299 299 299 300 299 299 299 299 298 298 298 299 300 301 301 300 300 298 297 296 296 295 293 291 289 287 285 283 282 281 281 279 277 275
292 293 294 294 295 296 296 297 298 299 299 300 300 300 300 300 300 299 299 299 300 300 301 301 301 300 299 298 297 296 296 294 292 290 287 285 283 282 281 280 279 276 275
293 293 294 295 296 297 297 297 298 299 300 300 300 300 300 300 301 301 301 301 300 300 300 301 300 299 299 298 296 296 296 295 292 290 288 286 283 282 281 279 278 277 277
293 293 294 295 296 297 297 297 298 299 299 300 300 300 300 300 301 301 302 301 300 300 300 300 300 299 298 297 296 295 295 295 293 290 288 286 284 282 279 278 279 279 279
293 294 295 296 296 297 297 297 298 298 299 299 299 299 300 300 301 301 301 300 300 300 300 299 299 298 297 296 296 295 295 293 292 290 288 285 283 280 279 279 280 282 281
294 295 295 296 296 296 296 297 297 297 297 298 298 298 299 300 300 299 299 299 299 299 298 298 298 297 296 295 295 294 294 292 291 290 288 285 283 280 280 281 283 283 284
294 295 295 296 297 297 297 297 297 296 297 297 297 298 298 299 298 298 297 298 299 298 297 296 295 295 294 293 293 294 293 291 291 289 287 286 284 283 284 285 284 286 287
Height
5704 5703 5703 5702 5701 5700 5699 5699 5698 5697 5696 5695 5693 5692 5690 5689 5687 5685 5683 5681 5679 5676 5673 5671 5668 5664 5661 5658 5654 5650 5646 5643 5641 5640 5636 5631 5627 5624 5620 5617 5613 5610 5606
5694 5694 5693 5692 5691 5690 5689 5688 5687 5686 5685 5683 5682 5680 5678 5676 5674 5672 5670 5668 5665 5663 5660 5657 5653 5650 5646 5642 5639 5635 5631 5627 5624 5622 5620 5615 5611 5607 5604 5600 5597 5593 5590
5685 5684 5683 5682 5680 5679 5678 5677 5675 5674 5673 5671 5670 5668 5666 5663 5661 5659 5657 5654 5652 5649 5645 5642 5638 5634 5631 5627 5623 5619 5615 5611 5606 5604 5602 5598 5594 5590 5586 5583 5580 5576 5572
5675 5674 5673 5671 5669 5668 5666 5665 5664 5662 5661 5659 5657 5654 5652 5650 5648 5645 5643 5640 5637 5634 5630 5626 5622 5618 5614 5610 5606 5602 5597 5593 5589 5586 5583 5580 5577 5572 5568 5565 5562 5558 5555
5665 5664 5662 5660 5658 5657 5655 5654 5652 5650 5648 5646 5643 5641 5638 5636 5633 5630 5628 5625 5622 5619 5615 5610 5606 5601 5597 5592 5588 5584 5579 5575 5571 5567 5565 5562 5559 5554 5551 5547 5544 5541 5537
5655 5653 5651 5650 5648 5646 5644 5642 5640 5637 5635 5633 5630 5627 5624 5621 5618 5615 5612 5610 5606 5602 5598 5594 5589 5584 5579 5574 5570 5565 5561 5557 5553 5549 5546 5543 5540 5536 5532 5529 5526 5523 5521
5644 5642 5640 5638 5636 5634 5632 5630 5627 5625 5622 5619 5616 5613 5610 5607 5603 5600 5596 5593 5590 5586 5581 5577 5572 5567 5562 5557 5553 5548 5544 5539 5535 5531 5528 5525 5522 5519 5515 5512 5509 5506 5504
5633 5631 5629 5626 5624 5622 5620 5617 5614 5612 5609 5606 5603 5599 5596 5592 5588 5584 5580 5577 5573 5569 5564 5559 5554 5550 5544 5539 5535 5531 5527 5522 5517 5513 5510 5507 5503 5500 5497 5494 5491 5489 5488
5621 5619 5617 5614 5612 5609 5606 5604 5601 5598 5595 5592 5588 5585 5581 5577 5573 5568 5564 5560 5556 5552 5547 5541 5536 5531 5526 5521 5517 5513 5509 5505 5499 5495 5492 5489 5486 5483 5479 5477 5475 5472 5471
5609 5607 5604 5601 5599 5596 5593 5590 5587 5584 5581 5577 5574 5570 5566 5562 5557 5552 5547 5543 5539 5535 5530 5524 5518 5513 5508 5502 5498 5494 5491 5487 5482 5479 5475 5472 5469 5466 5463 5460 5458 5456 5455
5597 5594 5591 5588 5585 5583 5580 5576 5573 5570 5566 5563 5560 5556 5551 5546 5541 5536 5530 5525 5520 5516 5512 5507 5501 5495 5490 5484 5479 5475 5472 5468 5465 5461 5459 5456 5453 5450 5447 5445 5442 5441 5439
5584 5581 5578 5575 5572 5569 5566 5562 5559 5555 5551 5548 5544 5540 5536 5530 5524 5519 5513 5508 5502 5498 5493 5488 5483 5478 5472 5467 5463 5458 5454 5450 5447 5444 5442 5439 5437 5434 5432 5429 5428 5426 5425
5571 5568 5565 5561 5558 5555 5551 5548 5544 5540 5536 5532 5527 5523 5519 5514 5508 5502 5497 5491 5485 5480 5475 5470 5466 5460 5456 5451 5446 5442 5438 5434 5431 5428 5425 5423 5421 5418 5416 5415 5413 5412 5411
5557 5554 5551 5547 5544 5540 5537 5533 5529 5524 5520 5515 5511 5506 5502 5498 5492 5485 5480 5475 5469 5463 5458 5454 5449 5444 5439 5435 5431 5427 5422 5418 5415 5413 5410 5408 5406 5404 5403 5401 5400 5399 5398
5543 5540 5537 5533 5530 5526 5522 5518 5513 5509 5503 5498 5494 5488 5484 5480 5475 5468 5463 5458 5453 5448 5443 5439 5434 5429 5425 5421 5416 5412 5408 5404 5401 5398 5396 5394 5392 5391 5390 5388 5387 5386 5386
5530 5526 5523 5519 5515 5511 5507 5503 5498 5493 5488 5482 5477 5471 5466 5462 5457 5452 5447 5442 5436 5431 5427 5423 5419 5414 5410 5406 5402 5398 5395 5391 5387 5385 5383 5381 5380 5378 5377 5376 5376 5375 5375
5516 5512 5508 5504 5500 5496 5492 5488 5484 5480 5474 5468 5462 5456 5451 5446 5441 5436 5431 5427 5423 5417 5413 5409 5404 5400 5396 5392 5388 5384 5381 5378 5375 5372 5370 5369 5368 5367 5366 5366 5365 5365 5364
5502 5498 5494 5490 5486 5481 5477 5472 5468 5464 5460 5456 5450 5443 5437 5432 5427 5422 5417 5413 5410 5405 5400 5395 5391 5387 5383 5379 5375 5372 5369 5366 5364 5362 5360 5359 5358 5357 5356 5356 5355 5355 5355
5487 5483 5479 5475 5471 5467 5463 5458 5454 5449 5445 5440 5436 5430 5424 5419 5414 5409 5404 5400 5397 5393 5388 5384 5379 5375 5371 5368 5364 5361 5359 5356 5354 5352 5351 5350 5349 5348 5347 5347 5346 5346 5346
5473 5469 5465 5462 5458 5453 5449 5445 5440 5436 5431 5426 5421 5416 5411 5407 5402 5398 5393 5389 5385 5381 5377 5373 5369 5364 5361 5357 5355 5352 5349 5347 5345 5343 5342 5341 5340 5339 5339 5339 5338 5338 5338
5460 5456 5452 5448 5444 5440 5436 5431 5427 5422 5418 5413 5408 5403 5398 5394 5390 5386 5382 5378 5374 5370 5366 5362 5358 5355 5351 5348 5345 5343 5341 5339 5337 5335 5334 5333 5333 5332 5331 5331 5331 5331 5331
5446 5443 5439 5435 5431 5427 5423 5418 5414 5409 5405 5400 5396 5391 5387 5382 5378 5375 5371 5367 5363 5359 5356 5352 5349 5346 5343 5340 5337 5335 5333 5331 5330 5328 5327 5326 5326 5325 5324 5324 5324 5324 5324
5433 5430 5426 5422 5418 5414 5410 5405 5401 5396 5392 5388 5383 5379 5375 5371 5368 5364 5360 5357 5353 5350 5346 5343 5340 5337 5335 5332 5330 5328 5326 5324 5323 5322 5321 5320 5319 5319 5318 5318 5318 5318 5318
5420 5416 5413 5409 5405 5401 5396 5392 5388 5384 5380 5376 5372 5368 5364 5361 5357 5354 5350 5347 5344 5341 5338 5335 5332 5329 5327 5325 5323 5321 5319 5318 5317 5315 5315 5314 5313 5313 5312 5312 5312 5312 5311
5407 5403 5399 5395 5391 5387 5383 5380 5375 5371 5368 5364 5360 5357 5353 5350 5347 5344 5341 5338 5335 5332 5329 5326 5324 5322 5320 5318 5316 5315 5313 5312 5311 5310 5309 5308 5308 5307 5307 5307 5306 5306 5305
5394 5390 5386 5382 5378 5374 5370 5367 5363 5359 5356 5353 5349 5346 5343 5340 5337 5334 5331 5328 5326 5323 5321 5319 5317 5315 5313 5312 5310 5309 5308 5306 5305 5304 5304 5303 5303 5303 5302 5302 5301 5301 5300